This demonstration page uses our WeatherBlox Daily Observations layout. Learn more.

41.55636, -103.73856

Hourly Observations for July 8, 2020

Temp ( °F °C ) Dew Point ( °F °C ) Humidity (%) Winds ( mph kmh ) Pressure ( in mb ) Visibility ( mi km ) Precip ( " mm )
12:58 am 00:58 Mostly Clear 86 29.9 38 3.4 18 18 S 39 63 29.65 1004 10 16.0934 0 0
1:58 am 01:58 Clear 83 28.1 37 2.9 20 20 S 24 39 29.67 1005 10 16.0934 0 0
2:58 am 02:58 Mostly Cloudy 82 27.5 36 2 19 19 S 26 43 29.65 1004 10 16.0934 0 0
3:58 am 03:58 Mostly Cloudy with Light Rain 80 26.5 46 7.9 31 31 S 48 78 29.63 1003 10 16.0934 0 0
4:58 am 04:58 Mostly Cloudy 77 25.2 48 9 36 36 S 29 46 29.68 1005 10 16.0934 0 0
5:59 am 05:59 Mostly Clear 76 24.7 43 6.3 31 31 SSW 31 50 29.68 1005 10 16.0934 0 0
6:58 am 06:58 Mostly Clear 77 25.1 46 7.5 33 33 SSW 35 56 29.65 1004 10 16.0934 0 0
7:58 am 07:58 Clear 74 23.6 50 10.1 43 43 SSW 28 44 29.67 1005 10 16.0934 0 0
8:58 am 08:58 Clear 68 20 48 8.9 49 49 WSW 12 19 29.7 1006 10 16.0934 0 0
9:58 am 09:58 Clear 63 17.4 47 8.2 55 55 W 12 19 29.74 1007 10 16.0934 0 0
10:58 am 10:58 Clear 62 16.7 45 7 53 53 W 12 19 29.75 1008 10 16.0934 0 0
11:58 am 11:58 Sunny 59 15 43 6.2 56 56 W 9 15 29.79 1009 10 16.0934 0 0
12:58 pm 12:58 Sunny 61 16.3 43 6.3 52 52 W 7 11 29.81 1009 10 16.0934 0 0
1:58 pm 13:58 Sunny 67 19.5 41 5.2 39 39 NW 16 26 29.8 1009 10 16.0934 0 0
2:58 pm 14:58 Sunny 71 21.9 43 6.2 36 36 NW 14 22 29.78 1009 10 16.0934 0 0
3:58 pm 15:58 Sunny 74 23.3 48 8.9 40 40 NW 8 13 29.79 1009 10 16.0934 0 0
4:58 pm 16:58 Sunny 78 25.6 50 10.1 38 38 NNE 7 11 29.78 1009 10 16.0934 0 0
5:58 pm 17:58 Sunny 81 27.3 49 9.7 33 33 NNW 6 9 29.77 1008 10 16.0934 0 0
7:58 pm 19:58 Sunny 88 31.2 49 9.2 25 25 E 10 17 29.73 1007 10 16.0934 0 0
8:58 pm 20:58 Partly Cloudy with Nearby Thunderstorms 86 29.8 47 8.6 27 27 NNW 8 13 29.76 1008 10 16.0934 0 0
9:58 pm 21:58 Mostly Sunny 87 30.6 27 -2.6 11 11 SSE 10 17 29.74 1007 10 16.0934 0 0
10:58 pm 22:58 Mostly Sunny 86 30.1 29 -1.4 13 13 E 9 15 29.75 1007 10 16.0934 0 0
11:58 pm 23:58 Sunny 88 31 29 -1.9 12 12 SE 17 28 29.75 1007 10 16.0934 0 0

Powered by AerisWeather